MST,Max TemperatureF,Mean TemperatureF,Min TemperatureF,Max Dew PointF,MeanDew PointF,Min DewpointF,Max Humidity, Mean Humidity, Min Humidity, Max Sea Level PressureIn, Mean Sea Level PressureIn, Min Sea Level PressureIn, Max VisibilityMiles, Mean VisibilityMiles, Min VisibilityMiles, Max Wind SpeedMPH, Mean Wind SpeedMPH, Max Gust SpeedMPH,PrecipitationIn, CloudCover, Events, WindDirDegrees
2011-10-1,98,86,75,73,64,54,78,47,23,29.94,29.87,29.80,12,11,10,14,8,,0.00,0,,277
2011-10-2,98,86,75,73,66,59,83,51,27,29.97,29.90,29.82,15,12,10,15,7,,0.00,2,,281
2011-10-3,100,86,71,70,61,57,78,43,25,29.97,29.89,29.80,12,11,10,15,6,,0.00,1,,237
2011-10-4,100,88,75,72,60,52,89,41,20,29.97,29.89,29.80,12,10,10,100,12,,0.00,1,,192
2011-10-5,96,82,69,75,65,55,78,51,25,29.96,29.88,29.79,12,11,10,14,8,,0.00,0,,327
2011-10-6,96,82,68,63,48,34,78,33,11,29.95,29.86,29.78,15,14,10,15,7,,0.00,1,,360
2011-10-7,91,80,68,64,54,45,83,41,20,29.98,29.91,29.84,15,12,10,15,7,,0.00,3,,23
2011-10-8,87,78,68,66,62,54,64,52,45,29.96,29.89,29.82,12,11,10,16,8,,0.00,0,,6
2011-10-9,87,78,68,64,61,59,73,52,38,29.91,29.84,29.77,12,11,10,17,7,,0.00,0,,354
2011-10-10,87,76,66,66,64,59,88,58,38,29.90,29.83,29.74,15,12,10,17,7,,0.00,1,,2
2011-10-11,87,76,66,64,62,57,83,54,38,29.91,29.78,29.70,12,11,10,15,6,,0.00,0,,346
2011-10-12,89,78,66,64,61,55,73,52,35,29.85,29.77,29.71,12,11,8,12,5,,0.00,4,,301
2011-10-13,96,81,66,68,55,37,73,44,13,29.92,29.84,29.74,15,11,10,14,8,,0.00,0,,208
2011-10-14,95,82,69,68,57,45,78,46,19,29.96,29.84,29.75,15,12,10,12,8,,0.00,0,,216
2011-10-15,95,82,68,70,60,50,88,51,23,29.96,29.86,29.76,15,11,8,14,9,,0.00,0,,219
2011-10-16,93,81,69,70,64,54,78,54,26,30.00,29.89,29.81,15,12,10,15,7,,0.00,0,,258
2011-10-17,95,82,69,72,61,45,73,50,18,29.99,29.90,29.82,15,12,10,14,7,,0.00,0,,251
2011-10-18,95,82,68,70,60,52,88,49,23,29.94,29.85,29.76,15,11,10,12,7,,0.00,0,,18
2011-10-19,93,78,64,72,62,52,88,54,28,29.97,29.86,29.80,15,12,10,12,6,,0.00,0,,217
2011-10-20,91,82,73,73,69,68,88,64,46,30.14,29.97,29.90,12,10,8,14,5,,0.00,2,,210
2011-10-21,95,84,73,68,63,55,78,54,28,30.12,29.99,29.91,15,11,8,12,7,,0.00,1,,200
2011-10-22,86,78,69,70,63,54,88,57,33,30.06,29.96,29.89,12,10,10,12,4,,0.00,6,,337
2011-10-23,89,79,69,72,68,64,88,61,43,30.04,29.94,29.84,15,11,10,12,5,,0.00,3,,343
2011-10-24,96,84,73,70,63,57,74,47,27,30.04,29.96,29.87,12,10,8,14,8,,0.00,1,,203
2011-10-25,96,84,73,72,64,57,83,50,27,30.05,29.96,29.86,12,11,10,14,6,,0.00,1,,44
2011-10-26,91,80,69,68,61,57,83,51,31,30.01,29.90,29.82,15,11,10,12,6,,0.00,0,,213
2011-10-27,86,75,64,64,59,52,77,53,33,29.99,29.90,29.84,15,11,10,17,8,,0.00,0,,8
2011-10-28,84,73,62,66,62,55,77,61,48,30.06,29.96,29.89,15,11,10,14,6,,0.00,0,,341
2011-10-29,86,73,60,66,63,59,94,64,40,30.10,29.98,29.90,15,12,10,14,6,,0.00,0,,342
2011-10-30,87,74,62,66,62,57,82,59,38,30.10,29.99,29.91,15,11,8,12,4,,0.00,0,,316
2011-10-31,89,74,60,66,58,48,72,50,24,30.04,29.93,29.84,12,10,10,12,7,,0.00,0,,269